Date,TemperatureHighF,TemperatureAvgF,TemperatureLowF,DewpointHighF,DewpointAvgF,DewpointLowF,HumidityHigh,HumidityAvg,HumidityLow,PressureMaxIn,PressureMinIn,WindSpeedMaxMPH,WindSpeedAvgMPH,GustSpeedMaxMPH,PrecipitationSumIn
2013-1-1,18,12,2,-100,-100,-100,0,0,100,0.00,40.00,13,10,23,0.00
2013-1-2,22,19,18,-100,-100,-100,0,0,100,0.00,40.00,9,5,14,0.00
2013-1-3,26,22,18,-100,-100,-100,0,0,100,0.00,40.00,21,11,34,0.00
2013-1-4,39,26,18,-100,-100,-100,0,0,100,0.00,40.00,14,8,28,0.00
2013-1-5,33,24,10,-100,-100,-100,0,0,100,0.00,40.00,17,5,22,0.00
2013-1-6,32,25,11,-100,-100,-100,0,0,100,0.00,40.00,18,9,24,0.00
2013-1-7,42,32,18,-100,-100,-100,0,0,100,0.00,40.00,20,13,31,0.00
2013-1-8,38,31,16,-100,-100,-100,0,0,100,0.00,40.00,14,4,27,0.00
2013-1-9,39,34,26,-100,-100,-100,0,0,100,0.00,40.00,20,11,38,0.00
2013-1-10,47,38,22,-100,-100,-100,0,0,100,0.00,40.00,15,7,28,0.00
2013-1-11,44,38,35,-100,-100,-100,0,0,100,0.00,40.00,5,2,11,0.00
2013-1-12,47,29,17,-100,-100,-100,0,0,100,0.00,40.00,21,12,36,0.00
2013-1-13,17,13,9,-100,-100,-100,0,0,100,0.00,40.00,11,8,19,0.00
2013-1-14,13,9,7,-100,-100,-100,0,0,100,0.00,40.00,12,8,17,0.00
2013-1-15,30,20,7,-100,-100,-100,0,0,100,0.00,40.00,16,10,32,0.00
2013-1-16,31,26,16,-100,-100,-100,0,0,100,0.00,40.00,24,17,32,0.00
2013-1-17,14,8,3,-100,-100,-100,0,0,100,0.00,40.00,17,8,24,0.00
2013-1-18,22,14,-18,-100,-100,-100,0,0,100,0.00,40.00,7,-6,17,0.00
2013-1-19,36,22,11,-100,-100,-100,0,0,100,0.00,40.00,34,14,42,0.00
2013-1-20,12,5,-2,-100,-100,-100,0,0,100,0.00,40.00,30,13,36,0.00
2013-1-21,-2,-8,-11,-100,-100,-100,0,0,100,0.00,40.00,15,10,28,0.00
2013-1-22,5,-6,-15,-100,-100,-100,0,0,100,0.00,40.00,14,9,20,0.00
2013-1-23,10,4,-7,-100,-100,-100,0,0,100,0.00,40.00,29,17,35,0.00
2013-1-24,10,5,-6,-100,-100,-100,0,0,100,0.00,40.00,21,8,26,0.00
2013-1-25,23,16,9,-100,-100,-100,0,0,100,0.00,40.00,24,11,27,0.00
2013-1-26,26,17,10,-100,-100,-100,0,0,100,0.00,40.00,9,4,25,0.00
2013-1-27,34,28,18,-100,-100,-100,0,0,100,0.00,40.00,9,3,12,0.00
2013-1-28,36,30,27,-100,-100,-100,0,0,100,0.00,40.00,7,2,15,0.00
2013-1-29,36,32,27,-100,-100,-100,0,0,100,0.00,40.00,21,7,24,0.00
2013-1-30,31,24,16,-100,-100,-100,0,0,100,0.00,40.00,24,20,29,0.00
2013-1-31,13,10,5,-100,-100,-100,0,0,100,0.00,40.00,24,14,29,0.00
2013-2-1,5,-4,-13,-100,-100,-100,0,0,100,0.00,40.00,14,9,20,0.00
2013-2-2,18,7,-11,-100,-100,-100,0,0,100,0.00,40.00,8,4,13,0.00
2013-2-3,14,8,-3,-100,-100,-100,0,0,100,0.00,40.00,17,8,29,0.00
2013-2-4,18,2,-15,-100,-100,-100,0,0,100,0.00,40.00,8,5,25,0.00
2013-2-5,23,14,1,-100,-100,-100,0,0,100,0.00,40.00,15,6,20,0.00
2013-2-6,23,16,4,-100,-100,-100,0,0,100,0.00,40.00,11,5,20,0.00
2013-2-7,28,24,21,-100,-100,-100,0,0,100,0.00,40.00,24,9,31,0.00
2013-2-8,26,19,4,-100,-100,-100,0,0,100,0.00,40.00,18,7,21,0.00
2013-2-9,29,22,1,-100,-100,-100,0,0,100,0.00,40.00,13,7,27,0.00
2013-2-10,33,29,24,-100,-100,-100,0,0,100,0.00,40.00,16,9,22,0.00
2013-2-11,32,28,23,-100,-100,-100,0,0,100,0.00,40.00,24,13,28,0.00
2013-2-12,30,24,19,-100,-100,-100,0,0,100,0.00,40.00,13,8,22,0.00
2013-2-13,44,32,25,-100,-100,-100,0,0,100,0.00,40.00,15,8,18,0.00
2013-2-14,32,26,22,-100,-100,-100,0,0,100,0.00,40.00,26,15,29,0.00
2013-2-15,22,16,13,-100,-100,-100,0,0,100,0.00,40.00,19,12,23,0.00
2013-2-16,20,8,-7,-100,-100,-100,0,0,100,0.00,40.00,9,6,18,0.00
2013-2-17,30,13,-10,-100,-100,-100,0,0,100,0.00,40.00,11,7,26,0.00
2013-2-18,34,29,24,-100,-100,-100,0,0,100,0.00,40.00,25,9,29,0.00
2013-2-19,24,12,5,-100,-100,-100,0,0,100,0.00,40.00,29,20,34,0.00
2013-2-20,17,12,-5,-100,-100,-100,0,0,100,0.00,40.00,22,11,28,0.00
2013-2-21,27,18,-6,-100,-100,-100,0,0,100,0.00,40.00,12,7,23,0.00
2013-2-22,29,25,22,-100,-100,-100,0,0,100,0.00,40.00,12,6,15,0.00
2013-2-23,31,27,21,-100,-100,-100,0,0,100,0.00,40.00,11,4,14,0.00
2013-2-24,39,28,23,-100,-100,-100,0,0,100,0.00,40.00,6,3,8,0.00
2013-2-25,40,29,14,-100,-100,-100,0,0,100,0.00,40.00,10,5,14,0.00
2013-2-26,36,27,14,-100,-100,-100,0,0,100,0.00,40.00,18,8,22,0.00
2013-2-27,33,32,31,-100,-100,-100,0,0,100,0.00,40.00,29,20,35,0.00
2013-2-28,31,27,24,-100,-100,-100,0,0,100,0.00,40.00,29,22,35,0.00
2013-3-1,25,23,14,-100,-100,-100,0,0,100,0.00,40.00,24,17,32,0.00
2013-3-2,27,14,1,-100,-100,-100,0,0,100,0.00,40.00,8,5,28,0.00
2013-3-3,28,13,-8,-100,-100,-100,0,0,100,0.00,40.00,11,5,15,0.00
2013-3-4,36,22,4,-100,-100,-100,0,0,100,0.00,40.00,21,8,25,0.00
2013-3-5,30,27,25,-100,-100,-100,0,0,100,0.00,40.00,25,13,30,0.00
2013-3-6,35,25,20,-100,-100,-100,0,0,100,0.00,40.00,15,6,17,0.00
2013-3-7,29,21,8,-100,-100,-100,0,0,100,0.00,40.00,14,5,16,0.00
2013-3-8,44,25,9,-100,-100,-100,0,0,100,0.00,40.00,14,5,28,0.00
2013-3-9,39,33,23,-100,-100,-100,0,0,100,0.00,40.00,7,3,22,0.00
2013-3-10,34,33,31,-100,-100,-100,0,0,100,0.00,40.00,25,11,29,0.00
2013-3-11,31,27,24,-100,-100,-100,0,0,100,0.00,40.00,28,20,34,0.00
2013-3-12,24,23,22,-100,-100,-100,0,0,100,0.00,40.00,23,11,29,0.00
2013-3-13,45,24,14,-100,-100,-100,0,0,100,0.00,40.00,17,8,29,0.00
2013-3-14,40,27,7,-100,-100,-100,0,0,100,0.00,40.00,12,7,22,0.00
2013-3-15,36,26,16,-100,-100,-100,0,0,100,0.00,40.00,20,14,25,0.00
2013-3-16,25,18,11,-100,-100,-100,0,0,100,0.00,40.00,18,8,27,0.00
2013-3-17,29,19,8,-100,-100,-100,0,0,100,0.00,40.00,13,7,24,0.00
2013-3-18,33,27,21,-100,-100,-100,0,0,100,0.00,40.00,12,7,24,0.00
2013-3-19,28,22,16,-100,-100,-100,0,0,100,0.00,40.00,26,13,31,0.00
2013-3-20,20,16,10,-100,-100,-100,0,0,100,0.00,40.00,19,11,25,0.00
2013-3-21,32,20,8,-100,-100,-100,0,0,100,0.00,40.00,11,6,18,0.00
2013-3-22,36,20,1,-100,-100,-100,0,0,100,0.00,40.00,7,4,9,0.00
2013-3-23,37,25,13,-100,-100,-100,0,0,100,0.00,40.00,11,4,12,0.00
2013-3-24,30,26,18,-100,-100,-100,0,0,100,0.00,40.00,25,9,29,0.00
2013-3-25,32,26,13,-100,-100,-100,0,0,100,0.00,40.00,17,8,21,0.00
2013-3-26,47,34,27,-100,-100,-100,0,0,100,0.00,40.00,4,2,6,0.00
2013-3-27,51,36,25,-100,-100,-100,0,0,100,0.00,40.00,5,2,28,0.00
2013-3-28,49,32,19,-100,-100,-100,0,0,100,0.00,40.00,6,3,8,0.00
2013-3-29,49,35,21,-100,-100,-100,0,0,100,0.00,40.00,8,4,11,0.00
2013-3-30,49,42,36,-100,-100,-100,0,0,100,0.00,40.00,13,8,22,0.00
2013-3-31,43,34,27,-100,-100,-100,0,0,100,0.00,40.00,25,15,32,0.00
2013-4-1,33,27,23,-100,-100,-100,0,0,100,0.00,40.00,25,16,30,0.00
2013-4-2,38,28,22,-100,-100,-100,0,0,100,0.00,40.00,10,6,15,0.00
2013-4-3,47,34,14,-100,-100,-100,0,0,100,0.00,40.00,23,10,35,0.00
2013-4-4,48,41,30,-100,-100,-100,0,0,100,0.00,40.00,25,10,35,0.00
2013-4-5,35,32,31,-100,-100,-100,0,0,100,0.00,40.00,16,10,18,0.00
2013-4-6,38,34,32,-100,-100,-100,0,0,100,0.00,40.00,13,5,24,0.00
2013-4-7,49,36,30,-100,-100,-100,0,0,100,0.00,40.00,12,4,16,0.00
2013-4-8,38,34,31,-100,-100,-100,0,0,100,0.00,40.00,6,2,10,0.00
2013-4-9,39,34,33,-100,-100,-100,0,0,100,0.00,40.00,17,6,22,0.00
2013-4-10,35,33,31,-100,-100,-100,0,0,100,0.00,40.00,18,11,25,0.00
2013-4-11,34,32,29,-100,-100,-100,0,0,100,0.00,40.00,32,18,36,0.00
2013-4-12,32,31,30,-100,-100,-100,0,0,100,0.00,40.00,27,22,33,0.00
2013-4-13,46,31,24,-100,-100,-100,0,0,100,0.00,40.00,13,7,22,0.00
2013-4-14,36,30,17,-100,-100,-100,0,0,100,0.00,40.00,25,10,29,0.00
2013-4-15,45,38,32,-100,-100,-100,0,0,100,0.00,40.00,18,9,32,0.00
2013-4-16,44,38,29,-100,-100,-100,0,0,100,0.00,40.00,12,6,26,0.00
2013-4-17,37,33,27,-100,-100,-100,0,0,100,0.00,40.00,18,9,23,0.00
2013-4-18,34,33,32,-100,-100,-100,0,0,100,0.00,40.00,37,23,42,0.00
2013-4-19,32,28,27,-100,-100,-100,0,0,100,0.00,40.00,37,26,43,0.00
2013-4-20,35,27,21,-100,-100,-100,0,0,100,0.00,40.00,20,10,29,0.00
2013-4-21,44,36,22,-100,-100,-100,0,0,100,0.00,40.00,17,10,31,0.00
2013-4-22,43,38,33,-100,-100,-100,0,0,100,0.00,40.00,17,7,27,0.00
2013-4-23,45,35,28,-100,-100,-100,0,0,100,0.00,40.00,27,12,30,0.00
2013-4-24,42,34,26,-100,-100,-100,0,0,100,0.00,40.00,13,6,25,0.00
2013-4-25,47,38,32,-100,-100,-100,0,0,100,0.00,40.00,8,5,19,0.00
2013-4-26,58,45,36,-100,-100,-100,0,0,100,0.00,40.00,11,6,19,0.00
2013-4-27,55,42,33,-100,-100,-100,0,0,100,0.00,40.00,8,3,20,0.00
2013-4-28,73,61,42,-100,-100,-100,0,0,100,0.00,40.00,15,9,28,0.00
2013-4-29,54,46,39,-100,-100,-100,0,0,100,0.00,40.00,8,4,9,0.00
2013-4-30,81,60,38,-100,-100,-100,0,0,100,0.00,40.00,17,8,32,0.00
2013-5-1,59,42,33,-100,-100,-100,0,0,100,0.00,40.00,16,5,21,0.00
2013-5-2,34,33,32,-100,-100,-100,0,0,100,0.00,40.00,26,18,29,0.00
2013-5-3,33,32,31,-100,-100,-100,0,0,100,0.00,40.00,29,19,34,0.00
2013-5-4,36,35,33,-100,-100,-100,0,0,100,0.00,40.00,21,15,27,0.00
2013-5-5,39,36,33,-100,-100,-100,0,0,100,0.00,40.00,13,7,16,0.00
2013-5-6,51,38,30,-100,-100,-100,0,0,100,0.00,40.00,5,2,7,0.00
2013-5-7,49,42,33,-100,-100,-100,0,0,100,0.00,40.00,6,3,19,0.00
2013-5-8,55,45,36,-100,-100,-100,0,0,100,0.00,40.00,14,3,20,0.00
2013-5-9,45,40,35,-100,-100,-100,0,0,100,0.00,40.00,22,12,27,0.00
2013-5-10,39,36,33,-100,-100,-100,0,0,100,0.00,40.00,18,8,28,0.00
2013-5-11,44,40,36,-100,-100,-100,0,0,100,0.00,40.00,25,15,32,0.00
2013-5-12,50,40,32,-100,-100,-100,0,0,100,0.00,40.00,19,11,25,0.00
2013-5-13,61,46,30,-100,-100,-100,0,0,100,0.00,40.00,15,7,28,0.00
2013-5-14,75,50,40,-100,-100,-100,0,0,100,0.00,40.00,13,5,27,0.00
2013-5-15,74,61,46,-100,-100,-100,0,0,100,0.00,40.00,14,7,24,0.00
2013-5-16,57,46,43,-100,-100,-100,0,0,100,0.00,40.00,13,4,16,0.00
2013-5-17,47,43,41,-100,-100,-100,0,0,100,0.00,40.00,12,4,13,0.00
2013-5-18,53,48,44,-100,-100,-100,0,0,100,0.00,40.00,8,2,9,0.00
2013-5-19,48,45,42,-100,-100,-100,0,0,100,0.00,40.00,15,5,18,0.00
2013-5-20,49,46,42,-100,-100,-100,0,0,100,0.00,40.00,14,6,21,0.00
2013-5-21,45,42,41,-100,-100,-100,0,0,100,0.00,40.00,15,7,18,0.00
2013-5-22,47,42,41,-100,-100,-100,0,0,100,0.00,40.00,26,13,31,0.00
2013-5-23,47,41,34,-100,-100,-100,0,0,100,0.00,40.00,26,13,31,0.00
2013-5-24,62,44,31,-100,-100,-100,0,0,100,0.00,40.00,15,4,27,0.00
2013-5-25,54,47,41,-100,-100,-100,0,0,100,0.00,40.00,7,4,13,0.00
2013-5-26,53,46,38,-100,-100,-100,0,0,100,0.00,40.00,10,4,14,0.00
2013-5-27,55,46,40,-100,-100,-100,0,0,100,0.00,40.00,7,3,9,0.00
2013-5-28,54,49,44,-100,-100,-100,0,0,100,0.00,40.00,6,3,7,0.00
2013-5-29,69,55,46,-100,-100,-100,0,0,100,0.00,40.00,6,2,15,0.00
2013-5-30,85,68,56,-100,-100,-100,0,0,100,0.00,40.00,13,5,25,0.00
2013-5-31,83,70,58,-100,-100,-100,0,0,100,0.00,40.00,17,9,29,0.00
2013-6-1,61,51,43,-100,-100,-100,0,0,100,0.00,40.00,14,7,19,0.00
2013-6-2,60,49,43,-100,-100,-100,0,0,100,0.00,40.00,16,9,18,0.00
2013-6-3,60,49,36,-100,-100,-100,0,0,100,0.00,40.00,10,6,22,0.00
2013-6-4,56,50,42,-100,-100,-100,0,0,100,0.00,40.00,11,3,13,0.00
2013-6-5,57,50,45,-100,-100,-100,0,0,100,0.00,40.00,12,5,15,0.00
2013-6-6,47,45,44,-100,-100,-100,0,0,100,0.00,40.00,10,4,13,0.00
2013-6-7,58,48,41,-100,-100,-100,0,0,100,0.00,40.00,4,2,7,0.00
2013-6-8,59,52,48,-100,-100,-100,0,0,100,0.00,40.00,6,2,7,0.00
2013-6-9,67,55,48,-100,-100,-100,0,0,100,0.00,40.00,7,4,14,0.00
2013-6-10,62,54,49,-100,-100,-100,0,0,100,0.00,40.00,9,2,18,0.00
2013-6-11,79,62,49,-100,-100,-100,0,0,100,29.87,29.85,8,4,19,0.00
2013-6-12,70,60,53,-100,-100,-100,0,0,100,29.89,29.87,9,4,12,0.00
2013-6-13,64,57,49,-100,-100,-100,0,0,100,0.00,40.00,9,4,11,0.00
2013-6-14,63,53,45,-100,-100,-100,0,0,100,0.00,40.00,10,4,12,0.00
2013-6-15,68,58,54,-100,-100,-100,0,0,100,0.00,40.00,8,3,12,0.00
2013-6-16,76,63,57,-100,-100,-100,0,0,100,0.00,40.00,32,7,29,0.00
2013-6-17,57,50,41,-100,-100,-100,0,0,100,0.00,40.00,15,5,26,0.00
2013-6-18,61,47,37,-100,-100,-100,0,0,100,0.00,40.00,6,4,8,0.00
2013-6-19,82,63,44,-100,-100,-100,0,0,100,0.00,40.00,12,6,19,0.00
2013-6-20,70,65,56,-100,-100,-100,0,0,100,0.00,40.00,17,5,25,0.00
2013-6-22,56,53,51,-100,-100,-100,0,0,100,0.00,40.00,12,4,19,0.00
2013-6-23,85,67,52,-100,-100,-100,0,0,100,0.00,40.00,18,6,31,0.00
2013-6-24,80,71,61,-100,-100,-100,0,0,100,0.00,40.00,10,5,15,0.00
2013-6-25,78,70,64,-100,-100,-100,0,0,100,0.00,40.00,7,4,10,0.00
2013-6-26,72,66,60,-100,-100,-100,0,0,100,0.00,40.00,6,3,11,0.00
2013-6-27,82,70,60,-100,-100,-100,0,0,100,0.00,40.00,18,5,23,0.00
2013-6-28,69,61,53,-100,-100,-100,0,0,100,0.00,40.00,13,5,16,0.00
2013-6-29,66,58,52,-100,-100,-100,0,0,100,0.00,40.00,7,3,9,0.00
2013-6-30,83,65,50,-100,-100,-100,0,0,100,0.00,40.00,7,4,28,0.00
2013-7-1,61,56,45,-100,-100,-100,0,0,100,0.00,40.00,10,5,11,0.00
2013-7-2,63,50,42,-100,-100,-100,0,0,100,0.00,40.00,8,4,9,0.00
2013-7-3,69,55,45,-100,-100,-100,0,0,100,0.00,40.00,6,4,9,0.00
2013-7-4,86,73,53,-100,-100,-100,0,0,100,0.00,40.00,12,7,19,0.00
2013-7-5,88,80,72,-100,-100,-100,0,0,100,0.00,40.00,14,11,24,0.00
2013-7-6,89,77,65,-100,-100,-100,0,0,100,0.00,40.00,18,10,29,0.00
2013-7-7,77,67,51,-100,-100,-100,0,0,100,0.00,40.00,21,7,30,0.00
2013-7-8,66,54,51,-100,-100,-100,0,0,100,0.00,40.00,8,4,19,0.00
2013-7-9,66,58,54,-100,-100,-100,0,0,100,0.00,40.00,11,2,17,0.00
2013-7-10,81,66,60,-100,-100,-100,0,0,100,0.00,40.00,18,7,25,0.00
2013-7-11,79,65,56,-100,-100,-100,0,0,100,0.00,40.00,7,4,10,0.00
2013-7-12,86,76,63,-100,-100,-100,0,0,100,0.00,40.00,16,9,26,0.00
2013-7-13,84,77,65,-100,-100,-100,0,0,100,0.00,40.00,12,7,24,0.00
2013-7-14,86,72,66,-100,-100,-100,0,0,100,0.00,40.00,10,4,17,0.00
2013-7-15,73,67,62,-100,-100,-100,0,0,100,0.00,40.00,5,2,7,0.00
2013-7-16,91,79,64,-100,-100,-100,0,0,100,0.00,40.00,11,5,18,0.00
2013-7-17,92,79,69,-100,-100,-100,0,0,100,0.00,40.00,15,6,19,0.00
2013-7-18,93,82,69,-100,-100,-100,0,0,100,0.00,40.00,19,8,29,0.00
2013-7-19,85,75,68,-100,-100,-100,0,0,100,0.00,40.00,18,8,34,0.00
2013-7-20,72,62,51,-100,-100,-100,0,0,100,0.00,40.00,17,10,19,0.00
2013-7-21,65,57,46,-100,-100,-100,0,0,100,0.00,40.00,18,7,22,0.00
2013-7-22,82,68,55,-100,-100,-100,0,0,100,0.00,40.00,16,8,29,0.00
2013-7-23,75,63,55,-100,-100,-100,0,0,100,0.00,40.00,20,9,26,0.00
2013-7-24,75,63,52,-100,-100,-100,0,0,100,0.00,40.00,8,5,12,0.00
2013-7-25,75,66,58,-100,-100,-100,0,0,100,0.00,40.00,14,7,19,0.00
2013-7-26,60,55,51,-100,-100,-100,0,0,100,0.00,40.00,24,11,29,0.00
2013-7-27,58,54,50,-100,-100,-100,0,0,100,0.00,40.00,18,11,24,0.00
2013-7-28,61,56,52,-100,-100,-100,0,0,100,0.00,40.00,18,10,27,0.00
2013-7-29,74,61,48,-100,-100,-100,0,0,100,0.00,40.00,10,5,13,0.00
2013-7-30,74,67,60,-100,-100,-100,0,0,100,0.00,40.00,11,6,17,0.00
2013-7-31,76,68,61,-100,-100,-100,0,0,100,0.00,40.00,15,7,25,0.00
2013-8-1,81,67,58,-100,-100,-100,0,0,100,0.00,40.00,11,5,14,0.00
2013-8-2,75,64,55,-100,-100,-100,0,0,100,0.00,40.00,21,5,29,0.00
2013-8-3,76,61,52,-100,-100,-100,0,0,100,0.00,40.00,10,5,11,0.00
2013-8-4,75,61,50,-100,-100,-100,0,0,100,0.00,40.00,10,6,11,0.00
2013-8-5,70,62,56,-100,-100,-100,0,0,100,0.00,40.00,8,5,13,0.00
2013-8-6,76,67,63,-100,-100,-100,0,0,100,0.00,40.00,6,3,17,0.00
2013-8-7,77,65,55,-100,-100,-100,0,0,100,0.00,40.00,16,5,19,0.00
2013-8-8,73,62,54,-100,-100,-100,0,0,100,0.00,40.00,6,4,9,0.00
2013-8-9,69,64,56,-100,-100,-100,0,0,100,0.00,40.00,16,8,20,0.00
2013-8-10,80,62,53,-100,-100,-100,0,0,100,0.00,40.00,6,4,8,0.00
2013-8-11,74,64,57,-100,-100,-100,0,0,100,0.00,40.00,8,5,11,0.00
2013-8-12,70,62,51,-100,-100,-100,0,0,100,30.09,30.05,22,9,30,0.00
2013-8-13,68,55,48,-100,-100,-100,0,0,100,30.21,30.09,9,5,11,0.00
2013-8-14,74,59,48,-100,-100,-100,0,0,100,30.21,30.08,8,5,11,0.00
2013-8-15,81,61,53,-100,-100,-100,0,0,100,30.11,30.07,9,5,13,0.00
2013-8-16,79,65,54,-100,-100,-100,0,0,100,30.16,30.10,8,5,12,0.00
2013-8-17,83,70,58,-100,-100,-100,0,0,100,30.20,30.08,11,7,21,0.00
2013-8-18,82,70,60,-100,-100,-100,0,0,100,30.14,29.99,13,7,21,0.00
2013-8-19,86,72,68,-100,-100,-100,0,0,100,29.99,29.88,13,8,27,0.00
2013-8-20,90,79,71,-100,-100,-100,0,0,100,29.92,29.83,14,8,22,0.00
2013-8-21,87,77,64,-100,-100,-100,0,0,100,30.01,29.79,14,6,25,0.00
2013-8-22,76,66,57,-100,-100,-100,0,0,100,30.15,30.01,7,4,10,0.00
2013-8-23,73,62,50,-100,-100,-100,0,0,100,30.19,30.07,9,4,10,0.00
2013-8-24,85,74,60,-100,-100,-100,0,0,100,30.13,29.89,19,9,26,0.00
2013-8-25,95,86,79,-100,-100,-100,0,0,100,29.95,29.88,20,11,32,0.00
2013-8-26,86,74,70,-100,-100,-100,0,0,100,29.98,29.90,14,6,29,0.00
2013-8-27,76,74,72,-100,-100,-100,0,0,100,29.92,29.82,14,5,19,0.00
2013-8-28,76,75,73,-100,-100,-100,0,0,100,30.05,30.01,6,2,7,0.00
2013-8-29,84,75,68,-100,-100,-100,0,0,100,30.04,29.79,30,5,20,0.00
2013-8-30,77,72,62,-100,-100,-100,0,0,100,29.97,29.79,16,9,25,0.00
2013-8-31,88,70,59,-100,-100,-100,0,0,100,29.94,29.72,21,4,33,0.00
2013-9-1,76,69,64,-100,-100,-100,0,0,100,29.95,29.66,23,10,28,0.00
2013-9-2,67,60,53,-100,-100,-100,0,0,100,30.08,29.95,18,11,24,0.00
2013-9-3,79,64,51,-100,-100,-100,0,0,100,30.06,29.92,10,7,16,0.00
2013-9-4,70,64,53,-100,-100,-100,0,0,100,30.19,29.94,30,10,36,0.00
2013-9-5,71,59,49,-100,-100,-100,0,0,100,30.29,30.13,11,6,24,0.00
2013-9-6,85,73,59,-100,-100,-100,0,0,100,30.13,29.87,12,8,20,0.00
2013-9-7,78,69,59,-100,-100,-100,0,0,100,30.12,29.86,29,10,34,0.00
2013-9-8,66,60,50,-100,-100,-100,0,0,100,30.16,29.94,18,5,20,0.00
2013-9-9,74,67,63,-100,-100,-100,0,0,100,29.94,29.66,10,5,28,0.00
2013-9-10,78,70,64,-100,-100,-100,0,0,100,29.92,29.70,12,4,17,0.00
2013-9-11,77,68,59,-100,-100,-100,0,0,100,30.03,29.92,23,7,30,0.00
2013-9-12,62,60,56,-100,-100,-100,0,0,100,30.22,30.01,19,14,22,0.00
2013-9-13,69,56,46,-100,-100,-100,0,0,100,30.28,30.09,15,6,20,0.00
2013-9-14,70,59,49,-100,-100,-100,0,0,100,30.09,29.92,13,7,20,0.00
2013-9-15,61,54,41,-100,-100,-100,0,0,100,30.33,29.95,29,8,29,0.00
2013-9-16,62,49,39,-100,-100,-100,0,0,100,30.44,30.29,10,6,12,0.00
2013-9-17,72,57,43,-100,-100,-100,0,0,100,30.29,29.99,10,6,19,0.00
2013-9-18,66,62,61,-100,-100,-100,0,0,100,29.99,29.79,8,6,17,0.00
2013-9-19,79,67,62,-100,-100,-100,0,0,100,29.79,29.66,15,4,28,0.00
2013-9-20,68,62,55,-100,-100,-100,0,0,100,29.84,29.68,23,9,30,0.00
2013-9-21,61,51,42,-100,-100,-100,0,0,100,29.99,29.84,21,10,27,0.00
2013-9-22,62,49,38,-100,-100,-100,0,0,100,30.09,29.98,18,7,20,0.00
2013-9-23,74,58,45,-100,-100,-100,0,0,100,30.04,29.97,12,5,20,0.00
2013-9-24,70,58,49,-100,-100,-100,0,0,100,30.03,29.95,13,6,16,0.00
2013-9-25,64,56,47,-100,-100,-100,0,0,100,30.03,29.96,10,4,12,0.00
2013-9-26,70,60,47,-100,-100,-100,0,0,100,30.04,29.95,10,6,18,0.00
2013-9-27,80,72,63,-100,-100,-100,0,0,100,30.00,29.87,16,8,28,0.00
2013-9-28,78,66,53,-100,-100,-100,0,0,100,29.89,29.58,19,10,31,0.00
2013-9-29,73,58,47,-100,-100,-100,0,0,100,29.94,29.83,10,6,17,0.00
2013-9-30,76,67,61,-100,-100,-100,0,0,100,29.83,29.63,21,12,33,0.00
2013-10-1,73,63,59,-100,-100,-100,0,0,100,29.91,29.78,9,6,18,0.00
2013-10-2,72,60,49,-100,-100,-100,0,0,100,30.05,29.91,13,6,25,0.00
2013-10-3,58,55,53,-100,-100,-100,0,0,100,30.01,29.95,14,7,18,0.00
2013-10-4,57,56,54,-100,-100,-100,0,0,100,30.10,30.01,24,15,33,0.00
2013-10-5,54,52,51,-100,-100,-100,0,0,100,30.09,29.75,18,14,25,0.00
2013-10-6,56,52,47,-100,-100,-100,0,0,100,29.76,29.66,18,8,21,0.00
2013-10-7,66,50,43,-100,-100,-100,0,0,100,29.98,29.75,12,6,15,0.00
2013-10-8,78,63,46,-100,-100,-100,0,0,100,29.99,29.83,16,11,34,0.00
2013-10-9,78,67,53,-100,-100,-100,0,0,100,30.07,29.91,15,9,28,0.00
2013-10-10,69,57,50,-100,-100,-100,0,0,100,30.08,29.97,9,4,29,0.00
2013-10-11,79,64,49,-100,-100,-100,0,0,100,29.99,29.74,15,6,32,0.00
2013-10-12,68,61,52,-100,-100,-100,0,0,100,30.04,29.70,16,10,28,0.00
2013-10-13,61,51,42,-100,-100,-100,0,0,100,30.39,30.04,11,6,16,0.00
2013-10-14,55,48,39,-100,-100,-100,0,0,100,30.42,30.17,15,6,26,0.00
2013-10-15,53,51,49,-100,-100,-100,0,0,100,30.17,29.72,32,14,39,0.00
2013-10-16,55,48,41,-100,-100,-100,0,0,100,29.89,29.76,30,12,30,0.00
2013-10-17,56,48,40,-100,-100,-100,0,0,100,29.86,29.77,12,6,14,0.00
2013-10-18,54,48,42,-100,-100,-100,0,0,100,29.90,29.78,17,10,28,0.00
2013-10-19,51,44,39,-100,-100,-100,0,0,100,29.82,29.66,9,5,14,0.00
2013-10-20,50,41,36,-100,-100,-100,0,0,100,29.77,29.71,10,6,15,0.00
2013-10-21,45,39,36,-100,-100,-100,0,0,100,29.82,29.71,29,9,41,0.00
2013-10-22,45,43,37,-100,-100,-100,0,0,100,29.98,29.77,29,14,34,0.00
2013-10-23,43,39,35,-100,-100,-100,0,0,100,29.99,29.91,18,9,25,0.00
2013-10-24,44,40,36,-100,-100,-100,0,0,100,30.22,29.99,18,8,28,0.00
2013-10-25,56,42,35,-100,-100,-100,0,0,100,30.23,29.64,22,10,31,0.00
2013-10-26,55,48,42,-100,-100,-100,0,0,100,30.01,29.65,27,14,29,0.00
2013-10-27,52,45,40,-100,-100,-100,0,0,100,30.18,29.78,29,12,35,0.00
2013-10-28,43,39,29,-100,-100,-100,0,0,100,30.50,30.21,29,13,37,0.00
2013-10-29,43,35,28,-100,-100,-100,0,0,100,30.47,30.16,6,3,9,0.00
2013-10-30,51,47,41,-100,-100,-100,0,0,100,30.16,29.68,9,2,28,0.00
2013-10-31,54,51,50,-100,-100,-100,0,0,100,29.68,29.30,11,5,13,0.00
2013-11-1,51,49,46,-100,-100,-100,0,0,100,29.77,29.30,16,8,20,0.00
2013-11-2,50,45,36,-100,-100,-100,0,0,100,30.12,29.77,17,6,20,0.00
2013-11-3,55,45,34,-100,-100,-100,0,0,100,30.18,30.01,15,7,29,0.00
2013-11-4,54,52,46,-100,-100,-100,0,0,100,30.09,29.86,14,9,31,0.00
2013-11-5,55,44,38,-100,-100,-100,0,0,100,30.20,30.02,12,6,21,0.00
2013-11-6,43,41,38,-100,-100,-100,0,0,100,30.09,29.95,21,13,27,0.00
2013-11-7,42,39,35,-100,-100,-100,0,0,100,30.15,30.09,10,6,14,0.00
2013-11-8,45,39,30,-100,-100,-100,0,0,100,30.16,29.64,12,7,27,0.00
2013-11-9,45,43,43,-100,-100,-100,0,0,100,29.99,29.57,13,9,23,0.00
2013-11-10,50,44,39,-100,-100,-100,0,0,100,30.24,29.98,27,11,29,0.00
2013-11-11,39,32,27,-100,-100,-100,0,0,100,30.61,30.05,24,20,32,0.00
2013-11-12,37,27,18,-100,-100,-100,0,0,100,30.67,30.37,17,9,26,0.00
2013-11-13,58,39,24,-100,-100,-100,0,0,100,30.37,29.75,19,11,29,0.00
2013-11-14,54,47,39,-100,-100,-100,0,0,100,29.79,29.72,10,6,24,0.00
2013-11-15,56,48,42,-100,-100,-100,0,0,100,29.82,29.71,11,6,14,0.00
2013-11-16,55,51,48,-100,-100,-100,0,0,100,29.71,29.29,11,6,22,0.00
2013-11-17,52,48,41,-100,-100,-100,0,0,100,29.57,29.27,22,7,40,0.00
2013-11-18,41,36,34,-100,-100,-100,0,0,100,30.24,29.57,29,14,38,0.00
2013-11-19,48,39,28,-100,-100,-100,0,0,100,30.29,29.95,14,7,29,0.00
2013-11-20,52,47,40,-100,-100,-100,0,0,100,30.06,29.93,17,10,32,0.00
2013-11-21,44,40,34,-100,-100,-100,0,0,100,30.44,30.05,22,11,29,0.00
2013-11-22,40,32,21,-100,-100,-100,0,0,100,30.49,30.33,25,14,30,0.00
2013-11-23,19,16,15,-100,-100,-100,0,0,100,30.72,30.47,27,16,33,0.00
2013-11-24,29,18,5,-100,-100,-100,0,0,100,30.64,29.84,18,11,30,0.00
2013-11-25,44,37,29,-100,-100,-100,0,0,100,29.92,29.75,21,11,32,0.00
2013-11-26,36,23,18,-100,-100,-100,0,0,100,30.26,29.93,27,17,35,0.00
2013-11-27,26,23,21,-100,-100,-100,0,0,100,30.28,30.13,24,8,29,0.00
2013-11-28,33,25,19,-100,-100,-100,0,0,100,30.43,30.12,22,7,29,0.00
2013-11-29,29,25,18,-100,-100,-100,0,0,100,30.52,30.18,17,7,29,0.00
2013-11-30,42,35,29,-100,-100,-100,0,0,100,30.18,30.02,13,7,22,0.00
2013-12-1,42,38,36,-100,-100,-100,0,0,100,30.15,29.97,14,4,16,0.00
2013-12-2,43,37,33,-100,-100,-100,0,0,100,29.97,29.77,4,1,7,0.00
2013-12-3,39,38,34,-100,-100,-100,0,0,100,29.92,29.76,20,10,24,0.00
2013-12-4,40,37,34,-100,-100,-100,0,0,100,29.92,29.34,12,6,16,0.00
2013-12-5,39,17,5,-100,-100,-100,0,0,100,30.17,29.37,14,10,27,0.00
2013-12-6,11,4,1,-100,-100,-100,0,0,100,30.49,30.17,14,10,24,0.00
2013-12-7,5,-1,-6,-100,-100,-100,0,0,100,30.61,30.49,13,10,18,0.00
2013-12-8,13,4,-9,-100,-100,-100,0,0,100,30.56,30.01,6,2,21,0.00
2013-12-9,13,5,-6,-100,-100,-100,0,0,100,30.01,29.86,15,7,26,0.00
2013-12-10,10,3,-5,-100,-100,-100,0,0,100,30.15,29.83,10,7,23,0.00
2013-12-11,2,-3,-8,-100,-100,-100,0,0,100,30.43,30.15,14,9,23,0.00
2013-12-12,12,6,-3,-100,-100,-100,0,0,100,30.29,30.14,12,8,21,0.00
2013-12-13,19,12,7,-100,-100,-100,0,0,100,30.37,30.16,16,6,20,0.00
2013-12-14,20,12,5,-100,-100,-100,0,0,100,30.37,29.93,9,2,23,0.00
2013-12-15,11,3,-6,-100,-100,-100,0,0,100,30.12,29.94,12,9,22,0.00
2013-12-16,13,7,-4,-100,-100,-100,0,0,100,30.12,29.81,12,8,22,0.00
2013-12-17,27,19,13,-100,-100,-100,0,0,100,30.02,29.76,25,10,29,0.00
2013-12-18,32,10,2,-100,-100,-100,0,0,100,30.02,29.66,10,4,21,0.00
2013-12-19,23,18,7,-100,-100,-100,0,0,100,30.13,29.76,22,9,27,0.00
2013-12-20,29,15,6,-100,-100,-100,0,0,100,30.10,29.87,6,3,10,0.00
2013-12-21,26,18,12,-100,-100,-100,0,0,100,30.02,29.86,5,2,10,0.00
2013-12-22,28,23,14,-100,-100,-100,0,0,100,30.15,29.94,24,8,29,0.00
2013-12-23,21,19,11,-100,-100,-100,0,0,100,30.39,30.15,17,5,26,0.00
2013-12-24,20,12,-3,-100,-100,-100,0,0,100,30.41,30.12,16,8,26,0.00
2013-12-25,20,16,12,-100,-100,-100,0,0,100,30.12,29.99,11,6,16,0.00
2013-12-26,20,10,-1,-100,-100,-100,0,0,100,30.18,30.05,8,4,13,0.00
2013-12-27,41,22,-3,-100,-100,-100,0,0,100,30.17,29.77,18,7,26,0.00
2013-12-28,40,34,23,-100,-100,-100,0,0,100,29.92,29.76,12,3,22,0.00